EW5682 Weather Reports


Display with metric or nautical units.
time (UTC)temp
F
wind
direction
speed
MPH
gust
MPH
rain 1hr
in
rain 24hr
in
rain mn
in
humidity
%
barometer
mb
20260502214002 58 65 0.0 1.0 0.00 0.43 0.43 82 1014.7
20260502213503 58 65 0.0 1.0 0.00 0.43 0.43 82 1014.7
20260502213059 58 65 0.0 1.0 0.00 0.43 0.43 82 1014.7
20260502212553 58 65 0.0 1.0 0.00 0.43 0.43 81 1014.7
20260502212049 58 65 0.0 1.0 0.00 0.43 0.43 81 1014.8
20260502211548 57 62 0.0 0.0 0.00 0.43 0.43 82 1014.8
20260502211036 57 62 0.0 0.0 0.00 0.43 0.43 83 1014.8
20260502210531 57 62 0.0 0.0 0.00 0.43 0.43 84 1014.9
20260502210021 58 62 0.0 1.0 0.00 0.43 0.43 84 1014.8
20260502205512 58 62 0.0 0.0 0.00 0.43 0.43 84 1014.8
20260502205009 58 62 0.0 0.0 0.00 0.43 0.43 83 1014.8
20260502204502 58 62 0.0 1.0 0.00 0.43 0.43 84 1014.8
20260502204059 59 62 0.0 1.0 0.00 0.43 0.43 84 1014.9
20260502203555 59 62 0.0 1.0 0.00 0.43 0.43 84 1014.9
20260502203053 59 61 0.0 2.0 0.00 0.43 0.43 83 1015.0
20260502202549 59 61 0.0 4.0 0.00 0.43 0.43 83 1014.9
20260502202048 59 350 0.0 4.0 0.00 0.43 0.43 83 1015.0
20260502201547 59 350 0.0 3.0 0.00 0.43 0.43 83 1014.9
20260502201041 59 350 0.0 3.0 0.00 0.43 0.43 83 1015.0
20260502200534 59 5 0.0 2.0 0.00 0.43 0.43 83 1015.1
20260502200032 59 149 0.0 1.0 0.00 0.43 0.43 83 1015.2
20260502195525 59 149 0.0 3.0 0.00 0.43 0.43 83 1015.2
20260502195017 59 136 0.0 3.0 0.01 0.43 0.43 83 1015.3
20260502194514 59 84 0.0 1.0 0.02 0.43 0.43 83 1015.2
20260502194010 59 84 0.0 0.0 0.04 0.43 0.43 83 1015.1
20260502193602 59 84 0.0 1.0 0.04 0.43 0.43 84 1015.1
20260502193053 59 84 0.0 1.0 0.06 0.43 0.43 84 1015.0
20260502192550 59 84 0.0 1.0 0.06 0.43 0.43 84 1015.1
20260502192044 60 84 0.0 1.0 0.06 0.43 0.43 84 1015.1
20260502191541 60 85 0.0 2.0 0.06 0.43 0.43 84 1015.1
20260502191036 60 68 0.0 2.0 0.06 0.43 0.43 84 1015.0
20260502190530 60 61 0.0 3.0 0.07 0.43 0.43 84 1015.0
20260502190032 60 49 0.0 3.0 0.08 0.43 0.43 84 1015.2
20260502185520 60 34 0.0 2.0 0.09 0.43 0.43 84 1015.3
20260502185015 60 18 0.0 4.0 0.08 0.43 0.43 84 1015.4
20260502184515 60 15 1.0 4.0 0.08 0.42 0.42 84 1015.6
20260502184016 60 355 1.0 4.0 0.06 0.39 0.39 84 1015.7
20260502183509 60 5 2.0 5.0 0.10 0.39 0.39 84 1015.7
20260502183009 60 5 2.0 4.0 0.27 0.38 0.38 84 1015.9
20260502182507 60 30 1.0 6.0 0.31 0.38 0.38 84 1015.8
20260502182005 60 305 0.0 6.0 0.31 0.37 0.37 84 1016.0
20260502181503 60 35 1.0 3.0 0.32 0.37 0.37 84 1015.8
20260502181005 60 74 1.0 4.0 0.32 0.37 0.37 84 1015.8
20260502180503 60 68 0.0 4.0 0.31 0.36 0.36 85 1016.0
20260502164042 71 46 0.0 1.0 0.05 0.05 0.05 77 1015.2
20260502163542 72 46 0.0 3.0 0.05 0.05 0.05 72 1015.2
20260502163042 73 46 0.0 3.0 0.04 0.04 0.04 69 1015.2
20260502162543 75 35 1.0 3.0 0.00 0.00 0.00 64 1015.4
20260502162039 76 130 0.0 3.0 0.00 0.00 0.00 62 1015.5
20260502161539 77 167 0.0 3.0 0.00 0.00 0.00 62 1015.5
20260502161038 77 168 0.0 3.0 0.00 0.00 0.00 57 1015.6
20260502160536 78 229 0.0 3.0 0.00 0.00 0.00 53 1015.5
20260502152030 78 277 2.0 3.0 0.00 0.00 0.00 53 1015.9
20260502151528 78 290 0.0 5.0 0.00 0.00 0.00 52 1016.0
20260502151028 79 293 3.0 5.0 0.00 0.00 0.00 51 1016.2
20260502150524 79 290 0.0 5.0 0.00 0.00 0.00 52 1016.3
20260502130502 75 265 1.0 8.0 0.00 0.00 0.00 58 1017.9
20260502123502 76 263 4.0 9.0 0.00 0.00 0.00 58 1018.2
20260502123002 75 273 3.0 8.0 0.00 0.00 0.00 60 1018.2
20260502122502 75 309 4.0 8.0 0.00 0.00 0.00 61 1018.3
20260502122002 75 275 3.0 8.0 0.00 0.00 0.00 58 1018.5
20260502121503 75 302 3.0 9.0 0.00 0.00 0.00 59 1018.6
20260502121004 75 294 3.0 9.0 0.00 0.00 0.00 60 1018.7
20260502120501 75 305 3.0 9.0 0.00 0.00 0.00 59 1018.7
20260502115502 76 311 2.0 9.0 0.00 0.00 0.00 59 1018.7
20260502115004 75 290 2.0 9.0 0.00 0.00 0.00 60 1018.8
20260502114502 75 300 2.0 6.0 0.00 0.00 0.00 59 1018.9
20260502114002 75 289 2.0 6.0 0.00 0.00 0.00 60 1018.9
20260502113502 75 195 2.0 8.0 0.00 0.00 0.00 59 1018.9
20260502113007 75 299 2.0 9.0 0.00 0.00 0.00 60 1019.1
20260502112503 75 238 3.0 9.0 0.00 0.00 0.00 59 1019.1
20260502112002 75 298 1.0 7.0 0.00 0.00 0.00 59 1019.2
20260502111502 74 307 2.0 11.0 0.00 0.00 0.00 60 1019.2
20260502111002 75 238 2.0 11.0 0.00 0.00 0.00 58 1019.2
20260502110502 75 296 2.0 7.0 0.00 0.00 0.00 60 1019.2
20260502110003 74 220 1.0 7.0 0.00 0.00 0.00 59 1019.3
20260502105504 74 295 2.0 10.0 0.00 0.00 0.00 59 1019.4
20260502105003 74 214 4.0 10.0 0.00 0.00 0.00 60 1019.4
20260502104502 74 296 3.0 7.0 0.00 0.00 0.00 59 1019.5
20260502104002 74 249 2.0 9.0 0.00 0.00 0.00 60 1019.5
20260502103502 74 273 5.0 9.0 0.00 0.00 0.00 60 1019.6
20260502103003 73 219 2.0 9.0 0.00 0.00 0.00 60 1019.6
20260502102504 73 238 0.0 7.0 0.00 0.00 0.00 58 1019.7
20260502102003 73 299 2.0 10.0 0.00 0.00 0.00 58 1019.8
20260502101502 73 310 4.0 10.0 0.00 0.00 0.00 60 1019.8
20260502101056 73 215 1.0 7.0 0.00 0.00 0.00 60 1019.8
20260502100544 72 224 1.0 9.0 0.00 0.00 0.00 61 1019.8
20260502091029 70 231 1.0 4.0 0.00 0.00 0.00 60 1020.3
20260502090531 70 245 0.0 5.0 0.00 0.00 0.00 58 1020.3
20260502080107 66 202 0.0 1.0 0.00 0.00 0.00 68 1020.6
20260502071520 60 202 0.0 1.0 0.00 0.00 0.00 71 1020.8
20260502071014 60 202 0.0 1.0 0.00 0.00 0.00 71 1020.7
20260502070512 60 202 0.0 1.0 0.00 0.00 0.00 71 1020.7
20260502070020 60 202 0.0 1.0 0.00 0.00 0.00 70 1020.8
20260502065511 60 202 0.0 1.0 0.00 0.00 0.00 69 1020.7
20260502065015 60 202 0.0 0.0 0.00 0.00 0.00 68 1020.9
20260502064520 60 202 0.0 1.0 0.00 0.00 0.00 67 1020.8
20260502064006 60 202 0.0 1.0 0.00 0.00 0.00 67 1020.8
20260502063502 60 202 0.0 2.0 0.00 0.00 0.00 66 1020.8
20260502063004 60 202 0.0 2.0 0.00 0.00 0.00 67 1020.8
20260502062503 59 203 0.0 1.0 0.00 0.00 0.00 68 1020.8
20260502062004 59 203 0.0 2.0 0.00 0.00 0.00 69 1020.7
20260502061502 58 203 0.0 2.0 0.00 0.00 0.00 69 1020.7
20260502061001 57 203 0.0 1.0 0.00 0.00 0.00 71 1020.7
20260502060501 56 205 0.0 1.0 0.00 0.00 0.00 72 1020.8
20260502060005 56 205 0.0 0.0 0.00 0.00 0.00 72 1020.7
20260502055501 56 205 0.0 0.0 0.00 0.00 0.00 71 1020.7
20260502055002 55 205 0.0 0.0 0.00 0.00 0.00 71 1020.7
20260502054502 55 205 0.0 0.0 0.00 0.00 0.00 71 1020.7
20260502054004 55 205 0.0 0.0 0.00 0.00 0.00 70 1020.7
20260502053504 55 205 0.0 1.0 0.00 0.00 0.00 70 1020.6
20260502053003 55 205 0.0 1.0 0.00 0.00 0.00 70 1020.7
20260502052502 55 205 0.0 1.0 0.00 0.00 0.00 69 1020.7
20260502052002 55 205 0.0 1.0 0.00 0.00 0.00 69 1020.6
20260502051002 54 205 0.0 2.0 0.00 0.00 0.00 69 1020.8
20260502050502 54 207 0.0 2.0 0.00 0.00 0.00 70 1020.6
20260502050002 54 207 0.0 2.0 0.00 0.00 0.00 71 1020.7
20260502045502 53 207 0.0 2.0 0.00 0.00 0.00 72 1020.6
20260502045003 53 207 0.0 2.0 0.00 0.00 0.00 71 1020.6
20260502044503 52 207 0.0 1.0 0.00 0.00 0.00 74 1020.4
20260502044002 52 207 0.0 1.0 0.00 0.00 0.00 73 1020.5
20260502043502 52 207 0.0 1.0 0.00 0.00 0.00 75 1020.4
20260502043002 52 207 0.0 1.0 0.00 0.00 0.00 75 1020.5
20260502042502 52 207 0.0 2.0 0.00 0.00 0.00 73 1020.5
20260502042002 52 207 0.0 2.0 0.00 0.00 0.00 74 1020.4
20260502041502 51 207 0.0 2.0 0.00 0.00 0.00 74 1020.5
20260502041001 50 275 0.0 2.0 0.00 0.00 0.00 76 1020.4
20260502040504 49 275 0.0 2.0 0.00 0.00 0.00 79 1020.5
20260502040007 48 275 0.0 2.0 0.00 0.00 0.00 81 1020.6
20260502035502 48 275 0.0 0.0 0.00 0.00 0.00 82 1020.7
20260502035002 47 275 0.0 0.0 0.00 0.00 0.00 82 1020.8
20260502034503 47 275 0.0 1.0 0.00 0.00 0.00 83 1020.9
20260502034001 47 275 0.0 1.0 0.00 0.00 0.00 83 1021.1
20260502033501 47 275 0.0 1.0 0.00 0.00 0.00 83 1020.9
20260502033003 46 275 0.0 1.0 0.00 0.00 0.00 83 1021.0
20260502032502 46 275 0.0 1.0 0.00 0.00 0.00 82 1020.9
20260502032002 46 275 0.0 1.0 0.00 0.00 0.00 82 1021.0
20260502031502 46 275 0.0 1.0 0.00 0.00 0.00 83 1021.0
20260502031058 46 275 0.0 4.0 0.00 0.00 0.00 83 1021.0
20260502030550 46 275 0.0 4.0 0.00 0.00 0.00 84 1020.9
20260502030002 45 235 0.0 0.0 0.00 0.00 0.00 84 1020.8
20260502025501 45 235 0.0 0.0 0.00 0.00 0.00 84 1020.8
20260502025101 45 235 0.0 0.0 0.00 0.00 0.00 84 1020.9
20260502024554 45 235 0.0 0.0 0.00 0.00 0.00 83 1020.9
20260502024045 45 235 0.0 0.0 0.00 0.00 0.00 83 1020.9
20260502023540 45 235 0.0 0.0 0.00 0.00 0.00 83 1020.9
20260502023030 45 235 0.0 0.0 0.00 0.00 0.00 83 1020.9
20260502022530 44 235 0.0 0.0 0.00 0.00 0.00 83 1021.0
20260502022031 44 235 0.0 0.0 0.00 0.00 0.00 83 1021.0
20260502021529 44 235 0.0 0.0 0.00 0.00 0.00 83 1021.0
20260502021028 44 235 0.0 0.0 0.00 0.00 0.00 83 1021.1
20260502020522 44 235 0.0 0.0 0.00 0.00 0.00 83 1021.1
20260502020022 44 235 0.0 0.0 0.00 0.00 0.00 82 1021.1
20260502015514 45 235 0.0 0.0 0.00 0.00 0.00 82 1021.2
20260502015011 45 235 0.0 1.0 0.00 0.00 0.00 81 1021.1
20260502014502 45 235 0.0 1.0 0.00 0.00 0.00 81 1021.2
20260502014002 45 235 0.0 0.0 0.00 0.00 0.00 81 1021.2
20260502013501 45 235 0.0 0.0 0.00 0.00 0.00 80 1021.2
20260502013001 45 235 0.0 0.0 0.00 0.00 0.00 81 1021.2
20260502012502 45 235 0.0 0.0 0.00 0.00 0.00 81 1021.3
20260502012058 45 235 0.0 0.0 0.00 0.00 0.00 81 1021.4
20260502011608 45 235 0.0 0.0 0.00 0.00 0.00 80 1021.5
20260502011047 45 235 0.0 0.0 0.00 0.00 0.00 80 1021.5
20260502010541 45 235 0.0 2.0 0.00 0.00 0.00 80 1021.6
20260502010041 46 235 0.0 2.0 0.00 0.00 0.00 80 1021.7
20260502005534 46 235 0.0 0.0 0.00 0.00 0.00 79 1021.7
20260502005030 46 235 0.0 0.0 0.00 0.00 0.00 79 1021.6
20260502004540 46 235 0.0 0.0 0.00 0.00 0.00 79 1021.7
20260502004024 46 235 0.0 0.0 0.00 0.00 0.00 79 1021.7
20260502003519 46 235 0.0 0.0 0.00 0.00 0.00 78 1021.7
20260502003022 46 235 0.0 0.0 0.00 0.00 0.00 77 1021.7
20260502002514 47 235 0.0 0.0 0.00 0.00 0.00 76 1021.7
20260502002008 47 235 0.0 0.0 0.00 0.00 0.00 76 1021.8
20260502001506 47 235 0.0 0.0 0.00 0.00 0.00 75 1021.7
20260502001003 48 235 0.0 0.0 0.00 0.00 0.00 74 1021.8
20260502000502 48 235 0.0 1.0 0.00 0.00 0.00 74 1021.9
20260502000004 48 235 0.0 1.0 0.00 0.00 0.00 74 1021.9
20260501235504 48 235 0.0 0.0 0.00 0.00 0.00 73 1021.9
20260501235002 48 235 0.0 0.0 0.00 0.00 0.00 73 1022.0
20260501234501 48 235 0.0 1.0 0.00 0.00 0.00 73 1022.1
20260501234002 48 235 0.0 1.0 0.00 0.00 0.00 73 1022.1
20260501233600 48 235 0.0 1.0 0.00 0.00 0.00 73 1022.1
20260501233059 48 235 0.0 1.0 0.00 0.00 0.00 73 1022.1
20260501232553 49 235 0.0 1.0 0.00 0.00 0.00 72 1022.2
20260501232052 49 235 0.0 1.0 0.00 0.00 0.00 72 1022.4
20260501231552 49 235 0.0 1.0 0.00 0.00 0.00 71 1022.4
20260501231040 49 235 0.0 0.0 0.00 0.00 0.00 71 1022.4
20260501230534 49 235 0.0 1.0 0.00 0.00 0.00 70 1022.5
20260501230031 50 235 0.0 2.0 0.00 0.00 0.00 70 1022.5
20260501225530 50 235 0.0 2.0 0.00 0.00 0.00 68 1022.5
20260501225032 50 235 0.0 2.0 0.00 0.00 0.00 68 1022.5
20260501224525 51 183 0.0 1.0 0.00 0.00 0.00 66 1022.6
20260501224019 52 183 0.0 2.0 0.00 0.00 0.00 64 1022.6
20260501223516 53 183 0.0 2.0 0.00 0.00 0.00 62 1022.6
20260501223010 55 183 0.0 1.0 0.00 0.00 0.00 59 1022.6
20260501222509 56 183 0.0 2.0 0.00 0.00 0.00 57 1022.6
20260501222007 58 183 0.0 2.0 0.00 0.00 0.00 54 1022.6
20260501221503 60 186 0.0 1.0 0.00 0.00 0.00 50 1022.7
20260501221001 61 186 0.0 2.0 0.00 0.00 0.00 46 1022.7
20260501220502 62 186 0.0 2.0 0.00 0.00 0.00 44 1022.7
20260501220101 62 33 0.0 2.0 0.00 0.00 0.00 43 1022.6
20260501215553 62 355 0.0 3.0 0.00 0.00 0.00 43 1022.6
20260501215049 62 5 0.0 4.0 0.00 0.00 0.00 42 1022.6
20260501214547 62 21 0.0 4.0 0.00 0.00 0.00 42 1022.6